Location: ????????
(60.4333°N, 46.4710°E)
Time: 18:27:57
(UTC+00:00)

Cosmos 2369 Rocket - Pass Details

Date: 25 November 2020
Orbit: 829 x 852 km, 71.0° (Epoch: 16 January)

Event Time Altitude Azimuth Distance (km) Brightness Sun altitude
Rises 14:10:32 0° 316° (NW) 3,433 5.8 -14.4°
Reaches altitude 10° 14:13:03 10° 320° (NW) 2,494 5.0 -14.7°
Maximum altitude 14:18:43 60° 40° (NE) 975 2.3 -15.4°
Enters shadow 14:23:33 14° 119° (ESE) 2,184 3.9 -15.9°
